Regional Weather Roundup
Issued by NWS

Home | Current Version | Previous Version | Graphics & Text | Print | Product List | Glossary On
Versions: 1 2 3 4 5 6 7 8 9 10 11 12 13 14 15 16 17 18 19 20 21 22 23 24 25 26 27 28 29 30 31 32 33 34 35 36 37 38 39 40 41 42 43 44 45 46 47 48 49 50
000
ASUS45 KTFX 250604
RWRMT
MONTANA HOURLY WEATHER ROUNDUP
NATIONAL WEATHER SERVICE GREAT FALLS MT
1104 PM MST WED DEC 24 2014

NOTE: "FAIR" INDICATES FEW OR NO CLOUDS BELOW 12000 FEET WITH NO
SIGNIFICANT WEATHER AND/OR OBSTRUCTIONS TO VISIBILITY.

* THESE STATIONS ARE NOT UNDER NWS QUALITY CONTROL. THEY DO NOT
   REPORT WEATHER SUCH AS PRECIPITATION OR FOG.

MTZ001>007-043-250700-
WEST OF THE DIVIDE
CITY           SKY/WX    TMP DP  RH WIND       PRES   REMARKS
KALISPELL      CLOUDY    32  28  85 N8        29.66R WCI  25
MISSOULA       LGT SNOW  32  30  92 NW8       29.62R WCI  25
BUTTE          CLOUDY    28  19  69 NW15G23   29.46R WCI  16
MULLAN PASS    LGT SNOW  25  21  85 VRB7      29.58R VSB 3/4  WCI  17
* ESSEX        N/A       28  22  78 N/A        N/A
* LINCOLN      N/A       28  26  92 E6         N/A   WCI  21
* LOOKOUT PASS N/A       27  27 100 N6G11      N/A   WCI  20
* POLSON       N/A       30  30 100 E1         N/A
* RONAN APT    CLOUDY    34  30  85 N14G20     N/A   WCI  24
* SEELEY LAKE  N/A       30  29  96 S2         N/A
* THOMP F APT  CLOUDY    24  22  92 NE5        N/A   WCI  18
$$

MTZ008-052>055-250700-
SOUTHWEST MONTANA
CITY           SKY/WX    TMP DP  RH WIND       PRES   REMARKS
BOZEMAN        LGT SNOW  30  30 100 CALM      29.46R VSB 1
DILLON         LGT SNOW  28  27  96 SE3       29.42R VSB 1 1/2
* W YELLOWSTON CLOUDY    21  19  92 N/A        N/A
* THREE FORKS  CLOUDY    30  30 100 N/A        N/A
* BOULDER HILL N/A       25  22  88 N19G24     N/A   WCI  11
* MONIDA PASS  N/A       21  21 100 N8         N/A   WCI  11
* RAYNOLDS PAS N/A       22   5  48 SE4        N/A
* WHITEHALL    N/A       31  25  78 NE10G20    N/A   WCI  22
* WISE RIVER   N/A       28  26  92 E9G18      N/A   WCI  19
$$

MTZ009>010-012-014-046-048-049-054-250700-
EAST SLOPES AND CENTRAL MONTANA
CITY           SKY/WX    TMP DP  RH WIND       PRES   REMARKS
CUT BANK       CLOUDY    25  19  78 NW13      29.67R WCI  13
GREAT FALLS    LGT SNOW  28  27  96 NE23      29.62R VSB 1    WCI  14
HELENA         CLOUDY    30  27  89 NW14      29.54R WCI  19
MALMSTROM AFB  LGT SNOW  28  28 100 NE18      29.64R VSB 3    WCI  15
* DEARBORN     N/A       30  30 100 S10G22     N/A   WCI  21
* EAST GLACIER N/A       22  19  88 NE6        N/A   WCI  14
* MONARCH      N/A       25  21  85 NE13G23    N/A   WCI  13
* PENDROY      N/A       25  25 100 VRB11      N/A   WCI  14
* ROGERS PASS  N/A       23  22  96 SE6G20     N/A   WCI  16
* SWEET GRASS  N/A       24  21  88 N14        N/A   WCI  12
$$

MTZ011-013-016-021-035-040-045-047-050-051-250700-
NORTH CENTRAL MONTANA
CITY           SKY/WX    TMP DP  RH WIND       PRES   REMARKS
HAVRE          CLOUDY    30  27  89 NW7       29.65R WCI  23
LEWISTOWN      LGT SNOW  30  28  92 CALM      29.56R VSB 1 3/4
* N BAR RANCH  FOG       28  27  96 VRB6G18   29.55R VSB 1    WCI  21
* CHESTER      N/A       30  24  78 N7G13      N/A   WCI  23
* DENTON       N/A       30  29  96 N8         N/A   WCI  22
* GEYSER       N/A       27  27 100 N20        N/A   WCI  13
* JUDITH GAP   N/A       27  27 100 N17        N/A   WCI  14
* LOMA         N/A       31  29  92 VRB9       N/A   WCI  23
$$

MTZ017>020-022>027-061-062-250700-
NORTHEAST MONTANA
CITY           SKY/WX    TMP DP  RH WIND       PRES   REMARKS
GLASGOW        MOCLDY    27  21  78 N12       29.58R WCI  16
GLENDIVE       MOCLDY    30  27  89 NW9       29.54R WCI  22
JORDAN         CLOUDY    32  30  92 N8        29.55R WCI  25
SIDNEY         PTCLDY    23  19  85 CALM      29.57R
WOLF POINT     MOCLDY    27  19  72 SW6       29.58R WCI  20
* BEAVER HILL  N/A       30  28  92 NW1        N/A
* CIRCLE       N/A       32  28  85 N/A        N/A
* LINDSAY DVD  N/A       29  27  92 NW9        N/A   WCI  21
* NAVAJO       N/A       24  21  88 NW16G21    N/A   WCI  11
* SACO         N/A       28  23  81 NW9        N/A   WCI  19
$$

MTZ028>042-056>058-250700-
SOUTHCENTRAL AND SOUTHEAST MONTANA
CITY           SKY/WX    TMP DP  RH WIND       PRES   REMARKS
BAKER          CLOUDY    30  28  92 N3        29.50R
BILLINGS       LGT SNOW  30  30 100 NE23G30   29.50R VSB 1/2  WCI  17
LIVINGSTON     LGT SNOW  30  28  92 E16       29.46R VSB 1    WCI  19
MILES CITY     LGT SNOW  32  30  92 N5        29.53R VSB 3    WCI  27
* LAUREL APT   CLOUDY    30  19  64 N7         N/A   WCI  23
* ROUNDUP APT  CLOUDY    30  27  89 N9         N/A   WCI  22
* ALZADA       N/A       31  27  85 N10        N/A   WCI  22
* HYSHAM       N/A       30  29  96 E12G18     N/A   WCI  20
* REED POINT   N/A       32  31  96 NE3G11     N/A
* ROSCOE HILL  N/A       28  25  89 SW1        N/A
$$

REGIONAL REPORTS...DAKOTAS
CITY           SKY/WX    TMP DP  RH WIND       PRES   REMARKS
WILLISTON      PTCLDY    21  18  88 CALM      29.53R
DICKINSON      CLOUDY    28  25  89 NW6       29.47R WCI  21
BEACH          CLOUDY    27  27 100 NW6       29.52R WCI  20
CROSBY         CLOUDY    27  27 100 NW12      29.53R WCI  16
WATFORD CITY   CLEAR     23  21  92 S6        29.50R WCI  16
BISMARCK       MOCLDY    28  25  89 W5        29.49R WCI  22
GRAND FORKS    CLOUDY    28  27  96 SW6       29.43R WCI  21
FARGO          CLOUDY    30  27  89 SW10      29.47S WCI  21
BUFFALO SD     CLOUDY    34  30  85 N9        29.41R WCI  27
RAPID CITY     CLOUDY    34  27  76 N16       29.41R WCI  24
$$

REGIONAL REPORTS...WYOMING/IDAHO/WASHINGTON
CITY           SKY/WX    TMP DP  RH WIND       PRES   REMARKS
GILLETTE       CLOUDY    30  25  82 CALM      29.38R
SHERIDAN       CLOUDY    34  30  85 W13       29.44R WCI  25
CODY           CLOUDY    30  25  82 CALM      29.40R
YELLOWSTONE LA CLOUDY    21  19  92 CALM      29.40F
SALMON         CLOUDY    28  27  96 CALM      29.51R
MULLAN PASS    LGT SNOW  25  21  85 VRB7      29.58S VSB 3/4  WCI  17
SAND POINT     PTCLDY    30  30 100 CALM      29.76R
SPOKANE        FAIR      34  28  79 NW8       29.75R WCI  27

$$



USA.gov is the U.S. government's official web portal to all federal, state and local government web resources and services.